Miscellaneous Local Product
Issued by NWS North Platte, NE

Home | Current Version | Previous Version | Text Only | Print | Product List | Glossary On
Versions: 1 2 3 4 5 6 7 8 9 10 11 12 13 14 15 16 17 18 19 20 21 22 23 24 25 26 27 28 29 30 31 32 33 34 35 36 37 38 39 40 41 42 43 44 45 46 47 48 49 50
000
AXUS43 KLBF 011110
MISLBF


WESTERN AND NORTH CENTRAL NEBRASKA HOURLY WEATHER ROUNDUP
NATIONAL WEATHER SERVICE NORTH PLATTE NE
600 AM CDT MON SEP 01 2014

***STATIONS NOT REPORTING VARIABLES SUCH AS SKY/WEATHER OR
PRESSURE ARE PROVIDED BY THE NEBRASKA DEPARTMENT OF
ROADS...RAWS...AND APRS NETWORKS...AND ARE NOT UNDER
NATIONAL WEATHER SERVICE QUALITY CONTROL***

...OBSERVATIONS IN AND NEAR THE EASTERN PANHANDLE OF NEBRASKA...

CITY           SKY/WX    TMP DP  RH WIND       PRES   REMARKS
PINE RIDGE     CLEAR     48  47  96 W5        29.94R
CHADRON        CLEAR     47  45  93 SW8       29.94S
ALLIANCE       PTCLDY    45  44  97 W8        29.97R
SIDNEY         PTCLDY    50  46  86 NW8       30.01S
WHITECLAY        N/A     44  43  97 E5          N/A
RUSHVILLE        N/A     43  42  96 SW7         N/A
GORDON           N/A     49  49  99 NE10        N/A
CRESCENT LAKE    N/A     49  46  91 W7          N/A
LISCO            N/A     50  45  84 W6          N/A
BIG SPRINGS      N/A     54  50  86 N3          N/A
$$

...OBSERVATIONS IN NORTH CENTRAL NEBRASKA...

CITY           SKY/WX    TMP DP  RH WIND       PRES   REMARKS
VALENTINE      CLEAR     51  50  96 W7        29.89R
THEDFORD       CLEAR     52  51  96 W5        29.92S
AINSWORTH      CLEAR     53  52  96 W7        29.88R
O`NEILL        PTCLDY    58  56  96 W9        29.84R
ORD            CLEAR     56  53  90 NW9       29.84S
BROKEN BOW     CLEAR     55  52  89 NW12      29.89R
SPRINGVIEW       N/A     54  52  92 W3G12       N/A
ROSE             N/A     55  55  99 CALM        N/A
NEWPORT          N/A     55  54  97 W7          N/A
COMSTOCK         N/A     58  56  94 NW5         N/A
CHAMBERS         N/A     56  55  95 NW3         N/A
EWING            N/A     57  56  96 W3G12       N/A
$$

...OBSERVATIONS IN SOUTHWEST NEBRASKA AND FAR NORTHEAST COLORADO...

CITY           SKY/WX    TMP DP  RH WIND       PRES   REMARKS
WRAY             N/A     51  49  93 W5        29.99S
HOLYOKE        FAIR      55  48  76 NW6       29.98F
IMPERIAL       PTCLDY    54  49  83 W5        29.96S
OGALLALA       PTCLDY    53  49  86 NW12      29.95S
NORTH PLATTE   CLEAR     49  48  97 W6        29.93R
MCCOOK         PTCLDY    55  52  89 NW8       29.94R
LEXINGTON      CLEAR     54  52  94 W7        29.91R
PAXTON           N/A     55  52  89 NW8         N/A
SUTHERLAND       N/A     47  45  93 W5          N/A
BRADY            N/A     51  48  91 CALM        N/A
GOTHENBURG       N/A     53  49  85 W5          N/A
CALLAWAY         N/A     52  51  95 NW9         N/A
$$

...SOME WEATHER OBSERVATIONS FROM AROUND THE REGION...

CITY           SKY/WX    TMP DP  RH WIND       PRES   REMARKS
DENVER         PTCLDY    52  44  74 S7        30.07S
LARAMIE        PTCLDY    41  34  76 SW5       30.10F
CHEYENNE       PTCLDY    44  40  85 W6        30.07S
SCOTTSBLUFF    CLEAR     48  47  96 SW3       30.00R
RAPID CITY     CLEAR     51  45  79 W6        29.90S
PIERRE         CLEAR     54  52  93 SW8       29.81R
WINNER         FAIR      56  53  90 W10       29.84S
SIOUX FALLS    LGT RAIN  63  60  90 W6        29.72S
OMAHA          PTCLDY    68  64  87 W3        29.74R
GRAND ISLAND   CLEAR     59  55  87 NW12      29.85R
KANSAS CITY    CLOUDY    66  63  90 S9        29.78R
WICHITA        MOCLDY    67  60  78 E15G22    29.86S
HAYS           PTCLDY    63  57  82 NW6       29.86S
LIBERAL        CLEAR     64  55  72 N12       29.89R
GOODLAND       PTCLDY    52  50  93 CALM      30.00R
$$



USA.gov is the U.S. government's official web portal to all federal, state and local government web resources and services.